Wind_Speed
2 3 7 12 7 3 3 3 7 4 7 4 4 4 12 15 22 22 26 25 28 29 24 20 19 19 20 22 23 22 21 19 15 13 11 9 8 8 6 6 6 6 6 7
2 6 11 4 5 6 5 6 14 7 3 2 3 2 1 7 12 24 25 27 29 29 28 25 23 21 22 25 24 23 20 17 14 10 9 8 7 9 6 5 5 4 6 7
10 7 8 4 6 5 6 5 5 7 1 3 5 2 5 5 7 15 20 26 31 33 32 29 27 24 23 27 26 24 22 18 16 15 14 13 11 8 6 4 3 3 5 4
7 8 8 9 6 6 7 7 9 6 3 4 5 5 6 10 11 14 22 30 32 30 31 31 31 28 27 27 26 24 22 20 19 18 17 12 7 8 6 2 2 1 3 5
8 1 6 9 11 6 8 10 10 7 5 4 3 1 4 10 14 17 26 32 35 35 34 33 34 29 26 26 27 26 25 24 22 20 17 14 11 9 8 5 2 3 2 3
10 5 5 7 4 5 5 6 2 3 3 5 8 9 4 8 16 18 25 33 41 38 38 34 34 30 30 28 29 29 29 27 25 21 19 16 13 14 13 9 6 6 5 5
3 10 7 12 12 14 4 2 4 4 3 10 6 5 7 13 11 20 28 40 40 38 40 37 38 40 37 33 32 33 32 30 27 25 22 18 18 18 15 12 10 9 8 7
5 6 8 5 15 13 8 8 5 8 5 8 1 5 5 8 20 25 24 29 33 34 40 40 40 41 40 35 34 35 35 32 30 28 25 22 22 22 18 16 14 13 10 11
6 5 4 5 7 10 4 4 8 5 2 1 4 5 6 5 1 10 18 26 31 37 44 43 40 41 42 37 36 39 36 34 32 30 27 28 26 26 22 19 17 15 14 14
6 7 6 7 4 6 8 5 3 2 5 11 4 5 5 4 6 6 12 23 29 33 39 40 41 42 44 39 37 39 37 35 33 32 30 31 29 27 24 22 21 18 18 17
6 5 5 1 5 10 1 3 4 4 5 9 9 6 7 10 9 13 17 28 32 38 40 40 44 41 44 42 39 38 38 37 36 34 33 33 30 28 27 26 23 22 21 18
9 5 6 17 8 7 7 11 11 10 8 3 3 7 4 6 7 16 19 26 31 33 38 38 43 43 43 45 43 39 38 38 36 35 35 35 32 30 30 29 26 25 23 19
7 4 2 6 4 2 6 5 5 3 2 16 9 6 2 8 6 15 16 21 28 31 35 38 41 45 43 44 46 43 40 40 37 36 36 37 36 35 33 31 29 27 25 21
10 5 8 13 9 5 5 6 4 8 5 6 6 5 6 6 9 10 15 20 26 32 35 36 41 44 44 43 46 47 45 44 42 40 39 39 39 37 34 32 31 30 27 23
5 7 6 6 7 6 7 6 9 7 6 7 6 9 11 10 9 14 19 21 25 30 32 36 40 44 45 45 46 48 48 47 46 45 42 44 41 38 36 35 33 32 29 26
2 6 6 4 6 7 5 8 7 6 3 5 3 4 6 15 14 12 12 17 25 29 34 37 41 43 45 47 48 49 49 50 49 49 51 42 43 41 39 38 36 34 31 30
6 5 3 11 4 3 7 12 11 6 6 7 6 7 4 5 8 16 17 15 16 21 27 34 37 38 41 42 44 49 51 51 49 49 50 47 45 43 41 39 38 35 33 32
9 7 5 13 3 15 9 9 15 16 10 10 5 6 10 8 8 11 15 18 16 12 10 9 9 14 23 29 33 37 43 49 50 49 46 48 46 42 42 40 39 37 35 33
9 9 5 4 12 5 4 5 8 9 17 8 11 12 11 14 14 7 12 12 11 8 5 3 2 5 7 11 15 21 29 35 43 44 44 45 44 41 41 41 40 37 35 35
10 5 11 3 6 12 8 7 13 5 14 10 15 9 12 18 5 4 15 15 13 10 7 6 5 5 6 8 11 16 21 26 31 35 34 34 39 39 39 39 38 36 34 35
14 6 17 10 7 7 6 5 16 12 7 14 25 24 26 9 11 23 19 14 10 7 6 5 6 8 10 8 6 7 12 18 22 29 32 33 34 36 36 36 36 34 32 33
15 13 9 6 4 16 10 7 11 7 7 19 24 30 26 14 24 25 17 13 9 6 3 1 3 4 6 7 8 7 8 8 14 19 23 26 30 33 35 35 33 31 29 29
13 11 9 15 10 4 21 13 15 19 20 19 30 32 28 31 27 22 19 14 11 8 5 3 3 3 5 8 11 14 14 16 15 15 19 24 29 33 34 32 30 32 29 30
8 5 6 5 6 7 18 11 20 21 23 25 33 35 33 30 25 20 16 14 10 7 4 1 3 6 7 9 12 16 21 24 26 28 27 28 30 32 31 34 33 30 29 36
7 6 7 1 0 8 15 23 27 28 32 34 32 33 33 30 24 21 17 13 9 5 3 3 4 3 2 4 5 7 10 16 22 30 34 34 34 33 35 32 28 29 31 36
6 10 9 5 16 9 15 26 32 34 36 37 37 30 27 25 24 20 16 14 11 9 8 4 3 3 6 8 11 13 13 15 17 21 24 30 35 38 36 29 30 38 35 35
Wind_Direction
181 139 213 233 200 234 319 259 277 258 252 156 222 162 167 164 175 178 180 180 185 191 186 185 181 184 184 179 176 175 172 172 174 171 169 161 149 130 111 82 54 43 38 30
351 231 234 226 184 230 266 273 279 272 186 117 103 90 305 176 191 185 184 185 189 188 186 184 183 187 190 185 184 183 181 179 176 174 171 169 168 156 136 90 63 51 41 23
216 222 224 223 280 239 242 223 245 236 79 59 110 20 204 210 186 186 195 198 199 193 192 190 188 196 196 194 191 189 185 184 182 183 181 186 183 172 161 124 84 62 42 22
243 246 228 263 239 172 263 222 242 220 166 232 170 252 210 206 207 205 196 199 199 201 205 202 196 200 200 198 196 192 189 191 190 192 196 204 192 186 176 141 67 9 11 14
233 318 223 228 234 174 236 257 225 240 197 147 199 343 250 187 222 220 210 205 204 201 212 210 206 208 204 201 199 194 193 193 197 201 206 208 207 209 222 215 222 255 300 326
242 238 191 217 254 211 271 300 332 35 118 230 222 186 232 187 217 229 217 210 210 205 211 217 216 213 208 204 203 199 197 198 202 209 213 219 222 227 235 239 245 256 268 287
288 235 246 254 282 290 181 91 300 302 267 257 210 175 229 214 223 217 211 211 205 203 212 212 210 211 209 206 204 203 202 206 206 212 214 218 229 238 246 257 265 268 274 293
200 315 187 200 209 234 228 184 178 241 230 263 270 233 243 215 231 238 225 206 199 203 213 210 212 215 211 211 208 208 209 209 212 216 217 218 228 238 243 253 261 271 281 285
187 254 227 194 185 165 234 174 215 241 266 320 234 292 322 140 200 158 173 183 194 198 211 214 214 216 215 215 215 214 214 215 216 220 220 222 229 235 240 247 254 261 265 272
222 275 199 241 148 227 187 187 252 342 211 254 246 227 223 229 231 172 165 183 195 200 209 214 215 216 218 221 222 218 221 223 224 223 224 225 233 236 240 245 250 255 258 262
167 203 237 94 193 225 302 235 236 258 162 249 259 253 213 212 199 196 196 193 197 203 209 214 217 221 222 223 224 224 224 225 227 228 229 231 236 239 241 245 247 249 252 255
206 186 230 239 230 204 185 224 215 226 247 248 197 249 243 204 250 198 202 206 208 211 212 214 219 222 223 224 225 227 227 228 230 231 233 236 239 240 241 241 243 243 247 254
179 235 257 315 330 225 230 202 216 168 134 225 231 261 254 143 206 233 214 215 213 212 214 217 220 222 227 226 227 228 229 230 231 231 234 237 239 240 241 242 243 244 245 249
168 200 186 235 214 175 202 214 211 207 199 222 219 194 248 169 164 217 228 227 222 214 216 218 222 226 231 231 230 230 231 231 232 233 234 238 240 242 244 245 245 246 243 246
156 235 201 229 221 189 206 188 199 197 215 191 225 200 205 206 192 201 221 230 218 220 220 223 228 231 234 235 234 234 236 236 235 235 236 239 242 243 244 244 246 247 243 241
240 245 185 266 211 208 231 211 206 216 219 261 199 222 210 215 212 205 202 225 223 224 228 232 236 237 237 239 239 239 240 241 238 237 240 239 242 242 244 244 245 245 245 241
184 190 188 245 200 193 258 212 202 210 199 168 197 214 170 191 202 227 222 205 206 222 232 237 242 245 247 247 247 246 247 245 242 239 239 241 242 242 244 242 246 248 249 247
216 195 190 245 165 229 246 186 198 213 201 198 181 203 201 203 185 213 219 186 152 137 144 180 217 238 247 252 255 256 255 250 246 243 239 241 243 242 243 242 248 251 252 248
214 216 221 192 228 281 244 205 168 182 236 202 185 190 174 152 128 121 151 154 147 141 144 171 234 251 252 248 252 256 257 255 250 247 244 245 245 245 246 247 250 253 254 252
194 221 214 152 232 223 204 207 206 112 252 207 190 177 152 150 141 218 159 142 132 118 96 64 25 340 308 287 273 266 262 258 255 252 255 256 250 250 252 253 255 257 259 256
195 198 216 215 229 270 240 184 151 178 235 181 198 188 168 179 198 172 149 140 123 98 67 48 44 33 27 6 334 305 287 276 273 260 257 257 257 256 258 257 257 260 260 258
185 184 201 183 226 246 188 112 191 188 159 178 184 178 169 157 139 144 141 138 136 144 160 116 353 349 346 342 334 330 312 313 280 272 268 266 263 260 258 258 258 260 261 257
203 190 173 189 204 208 177 200 203 177 172 178 182 178 162 142 146 150 154 162 172 178 183 232 261 282 311 313 304 294 292 292 279 279 277 270 263 258 258 258 261 261 252 247
228 158 159 131 213 173 188 187 192 188 180 171 169 163 158 151 152 155 153 152 156 159 172 234 301 305 304 287 282 289 294 293 287 279 273 273 271 266 264 260 256 251 251 248
212 144 145 153 151 125 181 186 178 168 157 156 156 159 156 156 159 158 155 157 163 184 231 276 290 289 328 345 339 322 306 295 289 283 279 275 270 268 265 260 264 260 267 252
191 170 180 204 181 157 183 181 171 164 161 159 157 158 162 162 156 159 161 165 170 179 182 203 265 316 332 327 320 314 307 301 295 291 289 286 278 270 261 253 265 260 260 260
Height
1532 1539 1545 1536 1538 1536 1539 1541 1541 1533 1523 1527 1531 1534 1534 1536 1540 1543 1545 1547 1549 1552 1554 1557 1558 1561 1565 1568 1569 1570 1570 1574 1577 1579 1581 1583 1583 1581 1581 1581 1583 1583 1583 1582
1537 1541 1530 1530 1533 1536 1537 1541 1535 1529 1523 1526 1534 1540 1539 1538 1537 1538 1542 1544 1545 1549 1552 1553 1556 1559 1561 1564 1567 1569 1570 1573 1575 1578 1581 1582 1583 1582 1581 1582 1583 1583 1582 1583
1535 1528 1526 1529 1530 1536 1536 1539 1534 1533 1528 1531 1533 1539 1539 1538 1539 1541 1542 1543 1543 1543 1545 1549 1552 1555 1560 1561 1564 1567 1569 1571 1574 1577 1578 1580 1582 1582 1582 1582 1582 1582 1582 1583
1530 1524 1526 1528 1533 1532 1541 1523 1524 1525 1532 1544 1528 1545 1534 1533 1536 1537 1537 1538 1538 1540 1542 1544 1547 1551 1555 1559 1564 1566 1568 1571 1573 1575 1576 1579 1581 1582 1581 1580 1581 1582 1581 1581
1528 1522 1526 1529 1524 1524 1529 1517 1520 1519 1528 1529 1531 1541 1528 1526 1529 1528 1528 1530 1532 1534 1533 1537 1541 1547 1551 1555 1559 1563 1566 1569 1571 1573 1575 1577 1579 1580 1580 1580 1581 1581 1580 1580
1519 1518 1520 1520 1516 1518 1518 1519 1517 1522 1527 1540 1525 1531 1534 1525 1514 1510 1518 1521 1523 1527 1528 1534 1540 1545 1548 1552 1556 1560 1564 1565 1568 1570 1573 1574 1576 1578 1578 1578 1578 1579 1579 1579
1516 1517 1514 1515 1519 1515 1519 1527 1548 1546 1542 1527 1512 1528 1513 1505 1499 1496 1496 1501 1510 1519 1523 1529 1534 1538 1543 1547 1551 1555 1559 1561 1564 1567 1569 1571 1574 1574 1575 1576 1576 1577 1578 1577
1526 1528 1510 1504 1510 1517 1520 1525 1549 1547 1546 1525 1511 1521 1504 1490 1489 1490 1492 1497 1507 1515 1517 1521 1528 1534 1539 1543 1547 1550 1553 1557 1560 1562 1564 1566 1570 1571 1572 1574 1575 1576 1576 1576
1521 1517 1496 1497 1498 1504 1512 1523 1511 1524 1521 1531 1519 1503 1491 1489 1491 1486 1489 1496 1500 1505 1510 1515 1522 1528 1534 1538 1541 1544 1548 1552 1556 1558 1560 1562 1565 1567 1568 1570 1572 1573 1573 1573
1499 1510 1495 1494 1496 1498 1502 1502 1519 1527 1532 1531 1517 1508 1507 1490 1489 1489 1489 1490 1496 1503 1507 1512 1516 1522 1527 1532 1537 1541 1544 1547 1550 1552 1555 1557 1560 1562 1565 1566 1568 1570 1570 1571
1496 1501 1498 1494 1500 1501 1504 1508 1506 1508 1518 1518 1521 1509 1486 1481 1479 1483 1482 1482 1487 1493 1498 1505 1511 1515 1521 1527 1532 1535 1539 1542 1544 1547 1549 1551 1554 1556 1559 1561 1563 1564 1566 1565
1490 1497 1503 1494 1485 1485 1488 1492 1492 1508 1511 1512 1522 1506 1475 1473 1477 1479 1478 1479 1482 1487 1493 1498 1504 1510 1515 1520 1525 1528 1532 1535 1538 1542 1544 1545 1548 1550 1552 1554 1556 1557 1558 1561
1485 1497 1505 1499 1490 1485 1488 1483 1484 1488 1494 1493 1508 1503 1472 1470 1474 1477 1478 1478 1479 1484 1490 1495 1502 1505 1508 1512 1517 1522 1525 1528 1532 1535 1538 1540 1541 1544 1545 1547 1548 1550 1551 1554
1476 1486 1486 1490 1487 1483 1487 1482 1477 1482 1503 1489 1494 1480 1476 1469 1469 1474 1474 1476 1477 1479 1484 1489 1495 1499 1502 1504 1509 1513 1517 1521 1524 1528 1531 1533 1534 1537 1540 1542 1544 1545 1547 1549
1475 1485 1480 1474 1472 1475 1474 1475 1474 1477 1476 1486 1474 1476 1468 1467 1465 1467 1469 1472 1474 1476 1480 1484 1488 1491 1494 1498 1501 1505 1510 1513 1516 1520 1523 1523 1528 1531 1535 1537 1539 1540 1541 1543
1473 1479 1477 1483 1470 1472 1473 1469 1470 1469 1465 1469 1468 1467 1459 1458 1462 1465 1465 1469 1471 1474 1476 1479 1483 1486 1488 1491 1494 1497 1501 1504 1508 1511 1513 1520 1521 1524 1526 1531 1532 1533 1533 1535
1473 1480 1482 1474 1470 1472 1478 1466 1465 1463 1458 1461 1473 1461 1453 1459 1461 1461 1461 1467 1468 1470 1472 1475 1479 1482 1483 1486 1489 1492 1494 1497 1500 1503 1505 1510 1513 1517 1519 1524 1526 1527 1527 1528
1465 1470 1478 1469 1474 1476 1440 1442 1447 1450 1449 1450 1451 1453 1451 1453 1457 1458 1461 1465 1467 1470 1472 1475 1477 1479 1480 1483 1486 1487 1488 1489 1492 1495 1500 1502 1505 1509 1513 1516 1519 1520 1521 1523
1457 1460 1472 1477 1467 1452 1443 1439 1443 1449 1444 1437 1442 1445 1445 1453 1454 1460 1461 1464 1466 1469 1473 1475 1477 1478 1479 1480 1480 1481 1483 1485 1489 1492 1495 1497 1501 1504 1507 1509 1512 1514 1516 1517
1449 1454 1457 1475 1465 1454 1430 1428 1428 1435 1442 1431 1434 1439 1443 1449 1463 1460 1460 1462 1467 1470 1472 1473 1475 1476 1478 1479 1478 1479 1481 1482 1485 1489 1492 1494 1496 1500 1502 1504 1506 1507 1509 1512
1436 1449 1446 1453 1453 1440 1422 1419 1424 1449 1440 1424 1427 1432 1439 1443 1443 1448 1457 1462 1464 1467 1471 1473 1474 1476 1476 1476 1476 1477 1478 1479 1482 1486 1490 1492 1493 1495 1496 1497 1500 1502 1504 1506
1416 1431 1437 1455 1445 1437 1411 1416 1425 1419 1416 1421 1425 1428 1435 1439 1444 1451 1456 1461 1465 1468 1470 1472 1473 1473 1473 1474 1475 1476 1477 1477 1479 1481 1483 1484 1486 1488 1490 1491 1494 1496 1498 1499
1407 1396 1408 1409 1406 1395 1397 1402 1407 1410 1411 1416 1421 1427 1433 1438 1445 1451 1456 1460 1463 1466 1468 1469 1469 1469 1470 1471 1471 1473 1474 1475 1477 1477 1477 1478 1478 1478 1480 1482 1484 1487 1487 1487
1390 1386 1394 1400 1394 1392 1397 1402 1404 1406 1408 1413 1419 1424 1431 1437 1446 1452 1456 1458 1460 1463 1465 1466 1467 1467 1466 1467 1469 1470 1471 1472 1472 1473 1473 1472 1472 1473 1471 1473 1476 1475 1478 1479
1379 1378 1386 1391 1390 1390 1394 1396 1400 1403 1407 1416 1422 1426 1430 1438 1444 1449 1452 1455 1457 1460 1463 1464 1465 1466 1465 1465 1468 1469 1468 1468 1467 1467 1467 1466 1464 1466 1465 1465 1470 1469 1467 1467
1360 1364 1376 1382 1379 1380 1384 1392 1397 1402 1406 1412 1419 1427 1434 1437 1441 1445 1449 1452 1455 1457 1459 1461 1463 1464 1465 1465 1465 1466 1466 1463 1461 1462 1460 1458 1457 1455 1456 1457 1455 1456 1458 1458